This is the latest recevied weather packets stored in our database for station/object W4WYD-2. If no packets are shown the sender has not sent any weather packets the latest 10 day(s).
| Time | Temp. | Humidity | Pressure | Rain* | Wind** | Luminosity | Snow |
|---|---|---|---|---|---|---|---|
| 1788135824 | 81° F | 90% | 763.4 mmHg | 0 in | - | 3 W/m² | - |
| 1788135520 | 81° F | 90% | 763.3 mmHg | 0 in | - | 5 W/m² | - |
| 1788135220 | 82° F | 88% | 763.4 mmHg | 0 in | - | 8 W/m² | - |
| 1788134918 | 82° F | 87% | 763.5 mmHg | 0 in | - | 11 W/m² | - |
| 1788134612 | 82° F | 88% | 763.4 mmHg | 0 in | - | 15 W/m² | - |
| 1788134310 | 83° F | 87% | 763.4 mmHg | 0 in | - | 19 W/m² | - |
| 1788134005 | 84° F | 85% | 763.6 mmHg | 0 in | - | 24 W/m² | - |
| 1788133701 | 84° F | 85% | 763.6 mmHg | 0 in | - | 30 W/m² | - |
| 1788133396 | 85° F | 83% | 763.6 mmHg | 0 in | - | 36 W/m² | - |
| 1788133092 | 86° F | 80% | 763.6 mmHg | 0 in | - | 42 W/m² | - |
| 1788132787 | 86° F | 80% | 763.5 mmHg | 0 in | - | 49 W/m² | - |
| 1788132483 | 87° F | 79% | 763.4 mmHg | 0 in | - | 57 W/m² | - |
| 1788132179 | 87° F | 78% | 763.5 mmHg | 0 in | - | 66 W/m² | - |
| 1788131875 | 88° F | 77% | 763.4 mmHg | 0 in | - | 75 W/m² | - |
| 1788131575 | 89° F | 74% | 763.6 mmHg | 0 in | - | 85 W/m² | - |
| 1788131269 | 91° F | 72% | 763.5 mmHg | 0 in | - | 94 W/m² | - |
| 1788130965 | 92° F | 69% | 763.4 mmHg | 0 in | - | 105 W/m² | - |
| 1788130664 | 93° F | 66% | 763.5 mmHg | 0 in | - | 116 W/m² | - |
| 1788130359 | 93° F | 68% | 763.4 mmHg | 0 in | - | 128 W/m² | - |
| 1788130058 | 92° F | 66% | 763.3 mmHg | 0 in | - | 141 W/m² | - |
| 1788129754 | 93° F | 63% | 763.3 mmHg | 0 in | - | 155 W/m² | - |
| 1788129450 | 93° F | 67% | 763.4 mmHg | 0 in | - | 168 W/m² | - |
| 1788129146 | 93° F | 65% | 763.2 mmHg | 0 in | - | 183 W/m² | - |
| 1788128840 | 92° F | 66% | 763.3 mmHg | 0 in | - | 193 W/m² | - |
| 1788128535 | 92° F | 59% | 763.1 mmHg | 0 in | - | 210 W/m² | - |
* Rain latest hour (hover to see other rain measurements)
** Current wind speed in m/s (hover to see current wind gust speed)